Wind_Speed
22 23 22 23 23 23 23 22 22 22 23 23 23 23 23 23 24 25 25 26 26 25 26 26 26 27 27 27 26 26 27 27 27 27 28 28 28 27 27 27 27 27 27
22 23 23 22 22 22 22 21 21 20 21 21 21 21 22 23 23 24 25 25 26 26 26 27 27 28 28 28 27 26 27 28 28 28 28 29 29 28 28 28 29 29 28
23 22 22 22 22 20 20 20 20 19 19 20 20 20 21 21 22 23 24 25 25 26 27 27 27 28 28 29 29 28 28 29 30 30 30 30 29 29 29 29 29 30 30
22 22 22 21 20 19 19 19 19 19 18 18 19 20 21 21 21 22 23 24 26 27 28 28 28 27 28 29 29 30 29 30 31 31 31 31 30 30 30 30 31 31 30
21 20 20 19 19 19 19 19 18 18 19 19 19 19 20 21 21 21 22 24 25 27 28 28 29 29 28 29 30 29 29 29 30 31 31 31 31 31 31 32 32 32 32
21 20 19 19 19 19 20 19 19 19 19 19 20 20 20 21 22 22 23 23 24 25 27 29 29 29 29 29 29 30 29 29 30 30 31 32 32 32 32 33 34 34 33
19 19 19 19 19 19 20 19 19 19 19 19 20 20 21 22 22 22 22 23 24 25 25 26 27 28 29 29 29 30 31 30 31 31 31 32 33 33 33 33 35 35 36
19 19 18 18 19 20 19 19 19 20 20 20 21 21 21 22 22 22 23 23 23 24 24 25 26 27 29 30 30 30 30 30 31 32 32 33 34 34 33 34 35 36 36
20 20 19 19 19 19 18 19 20 20 20 20 21 22 22 22 22 23 23 22 22 23 24 25 26 28 29 30 31 32 31 31 31 32 33 32 33 34 34 35 36 37 37
20 20 20 20 20 19 19 19 20 20 21 21 22 23 23 23 23 23 23 23 24 24 25 26 27 28 29 30 31 33 33 34 33 32 34 35 34 34 34 35 36 36 38
20 19 19 19 19 19 19 20 20 21 21 22 23 24 24 24 23 23 23 23 24 24 25 26 27 28 29 30 31 33 34 34 34 34 34 35 36 36 36 36 37 36 37
18 18 18 18 18 19 19 20 20 21 22 23 23 24 25 24 24 24 24 24 25 25 25 26 27 28 29 30 31 32 33 34 35 36 36 35 36 38 38 38 38 38 37
17 17 18 18 18 19 19 20 21 22 23 23 24 24 25 24 24 25 25 24 25 25 26 27 27 28 29 30 31 32 33 34 35 36 36 37 37 38 38 39 39 40 40
16 17 18 18 18 19 20 20 21 22 23 23 24 23 24 23 23 25 25 25 25 25 25 26 28 28 28 30 31 32 32 33 34 35 36 37 38 38 39 40 41 41 41
15 16 17 18 19 20 21 21 22 23 23 23 23 22 22 23 23 24 24 24 25 24 25 26 27 28 29 30 30 30 31 32 33 34 36 38 39 39 40 40 41 41 42
15 16 16 17 19 20 21 21 21 22 22 22 22 21 22 22 22 23 23 23 24 24 24 25 25 26 28 29 30 29 30 30 32 33 35 36 37 39 40 40 41 41 41
14 15 15 17 18 18 19 19 20 20 20 20 20 20 21 21 22 22 21 21 22 22 22 23 24 25 27 28 27 27 27 28 30 31 33 35 36 38 39 41 41 41 41
13 14 15 16 17 17 17 18 18 19 19 20 20 20 21 21 21 21 20 21 21 21 22 22 23 25 25 26 25 26 27 28 29 30 31 32 33 36 38 39 40 41 41
13 14 15 15 15 15 16 17 17 17 18 19 19 20 20 20 20 20 20 20 20 21 21 21 22 24 24 24 24 26 27 28 28 29 30 31 32 33 36 37 38 39 40
13 15 15 14 15 15 15 16 16 16 17 18 18 19 20 20 20 20 19 19 19 20 20 21 21 22 22 23 23 25 26 26 27 29 30 30 31 32 34 36 37 39 40
14 15 15 15 15 16 15 14 15 16 17 18 19 20 20 20 20 19 18 18 19 19 19 20 20 20 21 22 22 24 25 26 27 29 30 30 31 32 34 35 37 39 39
15 15 15 15 16 16 15 15 16 16 18 19 20 20 20 20 20 19 18 18 18 19 19 20 21 21 22 22 23 23 24 25 25 26 27 28 29 31 33 35 36 37 38
14 14 14 15 15 15 15 15 16 18 19 20 20 21 20 19 19 18 18 18 18 18 19 20 21 22 22 23 23 23 24 24 25 26 28 28 29 29 31 33 35 37 38
14 14 15 15 15 15 15 16 18 19 19 20 21 21 21 20 19 19 18 19 18 18 20 21 21 21 21 21 22 23 24 24 25 27 29 29 29 29 29 32 34 36 37
14 14 15 15 15 16 16 17 18 19 20 21 21 21 21 22 21 20 20 20 19 19 20 21 21 21 21 22 23 23 24 24 25 26 27 28 28 29 30 30 33 35 37
14 15 15 15 16 16 17 18 19 20 21 21 21 22 22 22 21 21 20 20 19 19 20 21 21 22 23 23 24 24 24 24 25 26 26 27 28 29 30 30 31 33 35
Wind_Direction
291 290 290 288 287 287 288 285 280 278 274 272 274 273 270 268 266 265 264 263 260 260 261 260 258 256 256 255 254 251 248 246 246 246 245 244 244 244 244 244 243 242 241
291 289 289 288 288 287 285 285 284 282 277 273 275 277 273 269 266 266 265 264 263 263 261 259 257 256 255 255 253 251 250 248 246 245 246 245 244 244 244 243 242 241 240
290 289 289 288 288 286 286 285 283 281 279 277 277 277 275 272 270 269 267 266 265 263 261 259 256 255 255 254 253 252 251 248 247 246 246 246 245 244 243 241 240 240 240
289 288 287 286 286 286 288 286 284 282 279 277 279 277 277 275 274 272 271 269 265 262 260 258 256 256 255 253 252 252 251 249 247 245 245 246 246 245 243 241 240 239 239
287 288 287 285 285 285 287 287 286 284 281 279 279 279 279 278 276 274 273 271 266 262 259 256 256 254 253 252 251 251 250 250 248 246 245 245 246 245 244 241 240 238 238
285 286 285 286 285 283 285 285 284 286 285 282 280 282 281 280 277 274 273 272 268 264 260 257 257 255 252 250 251 250 249 248 247 246 246 245 246 246 244 243 241 239 238
284 285 285 285 284 283 284 284 286 285 283 282 281 283 283 282 280 277 274 273 270 266 263 260 259 257 254 251 251 251 249 248 248 247 246 246 246 246 246 244 242 240 239
287 287 286 288 287 285 285 284 288 287 284 282 282 282 282 282 282 279 275 274 271 267 264 262 261 259 257 254 253 252 249 249 249 249 248 248 247 247 245 244 242 240 239
285 285 287 288 288 287 286 286 288 288 286 284 284 283 282 280 279 278 276 274 272 269 266 263 261 260 258 257 254 253 251 249 249 248 249 248 247 246 245 244 242 241 240
284 282 285 286 287 286 287 288 289 289 287 285 284 284 285 283 279 275 273 273 272 271 270 266 263 262 261 259 257 254 253 251 250 249 247 246 247 247 246 245 244 242 240
286 283 285 286 284 284 286 287 288 288 288 286 284 284 285 285 281 276 273 272 271 270 270 267 265 263 263 261 259 256 254 253 252 250 246 246 246 246 246 245 245 244 242
285 284 287 286 286 287 289 289 289 289 289 288 287 285 285 284 281 278 275 273 271 271 271 270 267 265 265 264 261 258 256 254 252 250 248 246 245 246 245 245 245 244 243
285 286 287 288 290 291 291 290 291 291 291 291 290 287 284 281 280 277 276 275 275 274 273 272 270 267 266 265 264 261 259 255 252 251 249 248 246 246 246 245 244 243 242
291 289 288 289 289 290 292 294 295 295 296 294 291 288 285 281 279 278 277 276 277 276 275 273 272 270 267 267 266 263 261 257 254 253 251 249 248 248 247 246 244 244 243
296 295 294 292 292 293 295 297 297 297 298 296 293 290 287 284 282 280 279 278 278 277 276 274 273 272 269 268 266 264 261 258 256 254 252 249 248 247 247 247 245 244 243
300 298 298 297 296 297 298 300 301 300 299 298 296 293 290 287 285 284 281 280 280 277 277 276 275 273 271 270 267 265 262 258 256 254 253 251 250 247 247 246 245 244 243
308 305 304 302 301 303 303 304 305 303 303 302 302 299 295 292 288 287 284 282 282 281 280 279 279 277 275 271 267 264 261 259 258 257 256 255 252 249 247 246 245 244 243
318 317 314 310 308 307 306 306 306 307 307 306 306 303 300 298 293 290 287 284 284 284 284 281 281 280 278 274 267 264 263 261 260 260 259 256 255 251 247 245 244 244 243
326 324 322 319 316 313 312 311 310 312 313 312 312 310 308 303 299 295 292 289 287 284 283 283 283 282 280 275 269 266 265 263 261 260 260 258 256 252 248 247 244 244 243
331 329 327 325 323 320 317 314 313 317 318 318 319 318 315 310 305 299 294 291 289 288 288 287 288 285 282 277 272 269 267 264 261 259 259 259 256 254 250 248 247 246 244
334 333 332 331 329 326 325 322 322 324 326 326 324 323 320 316 313 307 300 296 293 294 294 292 291 289 285 280 275 272 270 267 264 262 260 259 257 254 250 249 248 246 244
335 335 334 333 333 333 333 329 329 329 330 329 329 327 324 320 316 311 306 302 298 297 297 296 296 294 290 284 278 275 273 270 267 264 262 261 259 255 253 251 249 247 246
337 339 339 341 339 335 335 335 334 332 331 331 330 328 326 324 320 316 310 306 303 301 300 300 299 296 292 287 282 278 275 273 271 268 265 263 262 259 257 253 251 250 249
338 340 340 341 340 338 338 338 337 336 334 332 331 330 328 325 320 318 312 307 303 301 301 301 299 297 295 292 288 283 278 276 274 272 270 269 265 262 260 255 253 253 252
338 341 343 341 340 339 338 339 339 338 336 334 334 333 331 328 325 322 317 310 304 302 304 305 304 301 298 296 292 287 281 277 276 274 271 270 267 263 260 258 254 251 251
342 343 343 342 342 340 340 339 340 340 339 338 338 338 337 335 333 330 326 321 313 308 307 308 306 303 300 298 295 290 285 281 279 276 273 271 269 265 262 260 259 255 252
Height
5821 5819 5817 5815 5813 5812 5810 5809 5808 5807 5806 5805 5805 5805 5805 5804 5804 5805 5805 5806 5806 5806 5806 5807 5808 5808 5809 5810 5811 5812 5814 5815 5817 5819 5820 5822 5824 5826 5827 5829 5832 5834 5836
5815 5813 5811 5809 5807 5806 5804 5803 5802 5801 5800 5800 5800 5799 5799 5798 5798 5798 5799 5799 5799 5800 5800 5800 5801 5802 5803 5804 5805 5806 5807 5809 5810 5812 5814 5816 5818 5820 5821 5823 5826 5828 5830
5809 5807 5805 5803 5802 5800 5798 5798 5797 5796 5796 5795 5795 5794 5793 5792 5792 5792 5792 5792 5793 5793 5793 5793 5794 5795 5795 5797 5798 5799 5801 5802 5804 5805 5807 5809 5811 5813 5815 5817 5819 5822 5824
5803 5801 5799 5797 5796 5795 5794 5793 5792 5791 5790 5790 5789 5788 5788 5787 5786 5785 5785 5785 5785 5786 5786 5786 5787 5787 5788 5789 5791 5792 5794 5795 5796 5798 5800 5802 5804 5806 5808 5810 5813 5815 5818
5797 5795 5793 5792 5791 5790 5789 5788 5787 5786 5785 5785 5784 5783 5782 5781 5780 5779 5779 5778 5778 5777 5778 5778 5779 5780 5781 5782 5783 5785 5786 5787 5789 5790 5793 5795 5797 5799 5801 5803 5805 5808 5811
5791 5789 5788 5787 5786 5785 5783 5782 5781 5781 5780 5779 5778 5777 5776 5775 5774 5773 5772 5771 5770 5770 5770 5770 5770 5772 5773 5774 5776 5777 5778 5780 5781 5783 5785 5787 5789 5791 5793 5795 5798 5800 5803
5785 5784 5783 5782 5780 5779 5778 5777 5776 5775 5774 5773 5772 5771 5770 5769 5768 5766 5765 5764 5763 5762 5762 5762 5762 5763 5764 5766 5768 5769 5771 5772 5773 5775 5777 5779 5781 5783 5785 5788 5790 5792 5795
5780 5778 5776 5776 5775 5773 5771 5770 5770 5769 5768 5767 5766 5765 5764 5763 5761 5759 5758 5757 5756 5755 5754 5754 5755 5755 5756 5758 5760 5761 5763 5764 5765 5767 5769 5771 5773 5775 5777 5779 5782 5784 5787
5775 5773 5772 5771 5769 5767 5766 5765 5764 5763 5762 5761 5760 5759 5757 5757 5755 5753 5751 5750 5749 5748 5748 5747 5747 5748 5748 5750 5751 5753 5754 5755 5756 5758 5760 5762 5764 5766 5768 5770 5773 5775 5778
5768 5767 5766 5765 5764 5762 5761 5760 5758 5757 5756 5755 5753 5751 5750 5748 5747 5746 5745 5743 5742 5741 5740 5740 5740 5739 5740 5740 5742 5743 5744 5746 5747 5749 5750 5752 5755 5757 5759 5761 5763 5766 5769
5762 5761 5760 5759 5758 5757 5755 5754 5752 5751 5749 5748 5746 5744 5742 5740 5739 5738 5737 5736 5734 5733 5732 5731 5731 5731 5731 5731 5732 5733 5734 5736 5738 5739 5740 5742 5745 5747 5749 5751 5754 5756 5759
5757 5755 5754 5753 5752 5751 5749 5747 5746 5744 5742 5740 5738 5736 5734 5732 5731 5730 5729 5728 5727 5725 5724 5723 5723 5722 5722 5722 5722 5723 5724 5726 5727 5729 5730 5732 5734 5736 5739 5741 5744 5747 5750
5751 5750 5748 5747 5746 5745 5743 5741 5739 5737 5734 5732 5730 5728 5726 5724 5722 5721 5720 5719 5718 5717 5716 5715 5713 5713 5713 5713 5713 5713 5714 5715 5717 5718 5720 5721 5723 5726 5728 5731 5734 5737 5739
5746 5744 5743 5741 5740 5739 5737 5734 5732 5729 5727 5725 5722 5720 5718 5716 5714 5712 5711 5711 5709 5708 5707 5706 5705 5704 5704 5703 5703 5703 5703 5704 5706 5707 5709 5710 5712 5715 5717 5720 5723 5726 5728
5741 5739 5738 5736 5734 5732 5730 5728 5725 5723 5720 5717 5714 5712 5710 5708 5706 5704 5703 5702 5701 5699 5699 5697 5696 5695 5694 5694 5693 5693 5693 5694 5695 5696 5697 5699 5701 5703 5706 5709 5711 5714 5717
5736 5734 5733 5731 5728 5726 5724 5721 5718 5716 5713 5710 5708 5705 5703 5701 5699 5697 5695 5693 5692 5691 5689 5688 5687 5686 5685 5684 5683 5683 5683 5684 5685 5686 5687 5688 5690 5692 5694 5697 5700 5702 5706
5732 5730 5728 5726 5723 5720 5718 5715 5713 5710 5707 5704 5701 5699 5696 5694 5692 5689 5687 5686 5684 5682 5681 5680 5678 5677 5676 5674 5674 5673 5674 5674 5675 5676 5676 5677 5678 5681 5682 5685 5688 5691 5694
5729 5727 5724 5721 5718 5716 5713 5710 5707 5705 5702 5699 5696 5693 5690 5687 5685 5683 5681 5679 5677 5675 5674 5672 5671 5669 5667 5666 5665 5665 5665 5665 5666 5666 5666 5667 5668 5669 5671 5673 5676 5679 5683
5727 5724 5720 5717 5714 5711 5708 5705 5703 5700 5697 5694 5691 5687 5684 5681 5678 5676 5674 5672 5670 5668 5666 5665 5663 5661 5659 5658 5657 5656 5656 5656 5656 5656 5657 5657 5658 5659 5661 5663 5665 5668 5671
5724 5721 5718 5714 5711 5708 5705 5702 5699 5696 5693 5689 5686 5682 5679 5675 5672 5670 5668 5666 5664 5662 5659 5657 5655 5653 5651 5649 5649 5648 5648 5647 5648 5647 5647 5648 5648 5649 5650 5652 5655 5657 5660
5722 5718 5715 5712 5708 5705 5701 5698 5695 5692 5689 5685 5681 5678 5674 5670 5667 5664 5662 5660 5658 5655 5653 5650 5648 5646 5644 5642 5641 5640 5639 5639 5639 5638 5639 5639 5639 5639 5640 5641 5643 5645 5647
5720 5716 5713 5709 5705 5702 5699 5695 5692 5689 5685 5681 5677 5674 5670 5666 5662 5659 5656 5654 5652 5649 5647 5644 5642 5639 5637 5635 5633 5632 5631 5631 5630 5630 5629 5629 5629 5629 5629 5630 5632 5634 5636
5718 5714 5711 5707 5703 5700 5696 5693 5689 5686 5682 5678 5674 5670 5666 5661 5657 5654 5651 5648 5646 5643 5641 5638 5635 5632 5629 5627 5626 5624 5623 5622 5621 5620 5620 5619 5619 5619 5619 5619 5621 5622 5625
5715 5712 5708 5704 5701 5697 5694 5691 5687 5682 5678 5674 5670 5666 5661 5657 5653 5649 5646 5643 5640 5637 5635 5632 5629 5626 5622 5620 5618 5616 5614 5613 5612 5611 5610 5610 5609 5609 5610 5610 5611 5612 5614
5713 5710 5706 5703 5699 5695 5691 5688 5684 5679 5675 5671 5667 5662 5657 5653 5648 5644 5641 5638 5635 5632 5628 5625 5622 5619 5616 5613 5610 5608 5606 5605 5603 5602 5601 5600 5600 5600 5600 5600 5601 5601 5603
5711 5708 5704 5701 5697 5693 5689 5685 5681 5677 5672 5668 5663 5658 5654 5649 5644 5640 5636 5632 5629 5626 5622 5619 5616 5612 5609 5605 5602 5600 5598 5596 5595 5593 5592 5591 5590 5590 5591 5591 5591 5591 5592